K7FRY Weather Reports


time (UTC)temp
C
wind
direction
speed
KPH
gust
KPH
rain 1hr
cm
rain 24hr
cm
rain mn
cm
humidity
%
barometer
mb
20260505210842 24 242 11.3 17.7 0.00 0.71 0.71 38 1011.9
20260505210339 23 209 12.9 29.0 0.00 0.71 0.71 41 1011.8
20260505205836 23 299 11.3 22.5 0.00 0.71 0.71 43 1011.9
20260505205334 23 260 14.5 27.4 0.00 0.71 0.71 41 1011.9
20260505204831 23 237 11.3 24.1 0.00 0.71 0.71 41 1012.0
20260505204329 23 275 16.1 22.5 0.00 0.71 0.71 42 1012.1
20260505203826 23 280 11.3 27.4 0.00 0.71 0.71 46 1012.1
20260505203322 23 201 9.7 22.5 0.00 0.71 0.71 48 1012.1
20260505202819 23 208 16.1 22.5 0.00 0.71 0.71 47 1012.4
20260505202315 23 266 16.1 22.5 0.00 0.71 0.71 47 1012.1
20260505201812 22 287 17.7 24.1 0.00 0.71 0.71 48 1012.3
20260505201309 23 262 11.3 20.9 0.00 0.71 0.71 48 1012.3
20260505200807 23 225 12.9 20.9 0.00 0.71 0.71 48 1012.0
20260505200304 23 229 4.8 20.9 0.00 0.71 0.71 47 1012.2
20260505195759 24 246 11.3 17.7 0.00 0.71 0.71 48 1012.2
20260505195257 23 302 4.8 14.5 0.00 0.71 0.71 48 1012.4
20260505194754 22 272 9.7 14.5 0.00 0.71 0.71 48 1012.5
20260505194251 22 275 8.0 12.9 0.00 0.71 0.71 49 1012.4
20260505193746 23 191 1.6 8.0 0.00 0.71 0.71 48 1012.6
20260505193244 22 213 6.4 9.7 0.00 0.71 0.71 49 1012.3
20260505192742 22 301 8.0 24.1 0.00 0.71 0.71 51 1012.6
20260505192240 21 251 14.5 17.7 0.00 0.71 0.71 53 1012.5
20260505191738 21 217 6.4 11.3 0.00 0.71 0.71 55 1012.6
20260505191236 21 250 8.0 14.5 0.00 0.71 0.71 54 1013.1
20260505190732 20 330 8.0 12.9 0.00 0.71 0.71 56 1013.1
20260505190232 20 195 8.0 11.3 0.00 0.71 0.71 58 1013.2
20260505185728 20 108 4.8 9.7 0.00 0.71 0.71 59 1013.2
20260505185225 21 234 4.8 4.8 0.00 0.71 0.71 59 1013.4
20260505184721 20 128 3.2 9.7 0.00 0.71 0.71 61 1013.5
20260505184219 20 188 0.0 3.2 0.00 0.71 0.71 61 1013.5
20260505183715 20 88 4.8 8.0 0.00 0.71 0.71 61 1013.3
20260505183213 20 95 6.4 9.7 0.00 0.71 0.71 61 1013.5
20260505182709 20 81 3.2 8.0 0.00 0.71 0.71 65 1013.3
20260505182206 19 154 0.0 4.8 0.00 0.71 0.71 66 1013.5
20260505181702 20 89 3.2 8.0 0.00 0.71 0.71 68 1013.9
20260505181200 19 185 1.6 3.2 0.00 0.71 0.71 68 1013.8
20260505180656 18 184 3.2 8.0 0.00 0.71 0.71 69 1013.8
20260505180153 19 182 1.6 4.8 0.00 0.71 0.71 69 1013.8
20260505175649 19 25 3.2 8.0 0.00 0.71 0.71 68 1014.0
20260505175146 19 137 1.6 8.0 0.00 0.71 0.71 70 1013.7
20260505174642 18 143 4.8 4.8 0.00 0.71 0.71 70 1014.0
20260505174138 18 81 3.2 9.7 0.00 0.71 0.71 70 1014.0
20260505173635 18 72 3.2 4.8 0.00 0.71 0.71 73 1013.9
20260505173132 17 169 1.6 4.8 0.00 0.71 0.71 77 1013.9
20260505172630 17 144 3.2 3.2 0.00 0.71 0.71 77 1014.2
20260505172126 17 116 4.8 8.0 0.00 0.71 0.71 79 1013.9
20260505171621 17 77 4.8 4.8 0.00 0.71 0.71 78 1014.2
20260505171118 17 164 0.0 0.0 0.00 0.71 0.71 78 1014.2
20260505170615 17 174 1.6 4.8 0.00 0.71 0.71 78 1014.0
20260505170111 17 186 1.6 4.8 0.00 0.71 0.71 75 1013.9
20260505165607 17 82 1.6 3.2 0.00 0.71 0.71 75 1014.2
20260505165103 18 147 4.8 8.0 0.00 0.71 0.71 74 1014.0
20260505164559 18 181 0.0 1.6 0.00 0.71 0.71 73 1014.1
20260505164056 17 175 1.6 1.6 0.00 0.71 0.71 76 1014.0
20260505163555 17 172 1.6 1.6 0.00 0.71 0.71 76 1014.1
20260505163052 17 197 0.0 1.6 0.00 0.71 0.71 77 1014.0
20260505162550 17 78 1.6 3.2 0.00 0.71 0.71 80 1014.1
20260505162047 17 199 1.6 3.2 0.00 0.71 0.71 80 1014.1
20260505161544 17 155 1.6 1.6 0.00 0.71 0.71 79 1014.2
20260505161041 16 194 0.0 1.6 0.00 0.71 0.71 82 1014.1
20260505160539 17 183 0.0 3.2 0.00 0.71 0.71 80 1014.0
20260505153015 16 194 1.6 3.2 0.00 0.71 0.71 86 1013.9
20260505152512 16 209 1.6 3.2 0.00 0.71 0.71 89 1014.1
20260505152008 15 195 1.6 3.2 0.00 0.71 0.71 90 1014.1
20260505151503 15 230 3.2 3.2 0.00 0.71 0.71 92 1014.1
20260505151001 15 188 0.0 1.6 0.00 0.71 0.71 93 1013.9
20260505150457 15 209 3.2 3.2 0.00 0.71 0.71 95 1014.0
20260505140427 14 184 0.0 1.6 0.00 0.71 0.71 99 1013.9
20260505124841 13 179 0.0 0.0 0.00 0.71 0.71 99 1013.3
20260505124338 13 183 0.0 0.0 0.00 0.71 0.71 99 1013.3
20260505123834 13 219 0.0 1.6 0.00 0.71 0.71 99 1012.9
20260505123330 13 194 0.0 0.0 0.00 0.71 0.71 99 1013.3
20260505122826 13 162 0.0 0.0 0.00 0.71 0.71 99 1013.1
20260505122324 13 199 0.0 1.6 0.00 0.71 0.71 99 1012.8
20260505121821 13 179 0.0 0.0 0.00 0.71 0.71 99 1012.7
20260505121318 13 189 0.0 0.0 0.00 0.71 0.71 99 1012.8
20260505120814 13 175 0.0 0.0 0.00 0.71 0.71 99 1012.7
20260505120310 13 172 0.0 0.0 0.13 0.71 0.71 99 1012.7
20260505115808 13 180 0.0 0.0 0.00 0.69 0.69 99 1012.8
20260505115306 13 184 0.0 0.0 0.00 0.69 0.69 99 1012.8
20260505114804 13 167 0.0 0.0 0.00 0.69 0.69 99 1012.9
20260505114300 13 156 1.6 1.6 0.00 0.69 0.69 99 1012.8
20260505113756 13 187 0.0 0.0 0.00 0.69 0.69 99 1013.1
20260505113253 13 175 0.0 3.2 0.18 0.69 0.69 99 1012.8
20260505112749 13 183 0.0 1.6 0.30 0.69 0.69 99 1013.1
20260505112247 13 123 1.6 3.2 0.00 0.64 0.64 99 1013.3
20260505111747 13 203 0.0 1.6 0.18 0.64 0.64 99 1013.6
20260505111243 13 197 0.0 1.6 0.13 0.61 0.61 99 1013.5
20260505110739 13 163 0.0 1.6 0.13 0.61 0.61 99 1012.9
20260505110237 13 207 0.0 3.2 0.00 0.58 0.58 99 1013.4
20260505102212 14 184 4.8 4.8 0.00 0.56 0.56 99 1013.5
20260505101711 14 206 3.2 3.2 0.00 0.56 0.56 99 1013.6
20260505101206 14 217 4.8 4.8 0.00 0.56 0.56 99 1013.7
20260505100703 14 146 3.2 4.8 0.00 0.56 0.56 99 1013.7
20260505100200 13 205 6.4 11.3 0.00 0.56 0.56 99 1013.5
20260505095655 14 221 1.6 4.8 0.00 0.56 0.56 99 1013.7
20260505095154 13 224 4.8 8.0 0.13 0.56 0.56 99 1013.7
20260505094649 14 169 1.6 3.2 0.13 0.56 0.56 99 1013.7
20260505094146 14 186 3.2 4.8 0.18 0.53 0.53 99 1013.9
20260505093642 14 212 3.2 3.2 0.36 0.53 0.53 99 1014.0
20260505093140 14 205 3.2 4.8 0.30 0.51 0.51 99 1013.6
20260505092636 14 151 0.0 1.6 0.30 0.48 0.48 99 1013.9
20260505092135 14 180 1.6 1.6 0.13 0.43 0.43 99 1014.5
20260505091632 14 128 1.6 1.6 0.18 0.41 0.41 99 1014.2
20260505091130 14 201 0.0 1.6 0.00 0.38 0.38 99 1014.8
20260505090627 14 197 0.0 3.2 0.13 0.38 0.38 99 1014.9
20260505090125 14 174 1.6 1.6 0.30 0.38 0.38 99 1015.0
20260505085622 14 186 1.6 1.6 0.18 0.36 0.36 99 1015.1
20260505085120 14 217 1.6 1.6 0.13 0.33 0.33 99 1015.2
20260505084618 14 185 0.0 1.6 0.13 0.33 0.33 99 1015.2
20260505084116 14 196 1.6 3.2 0.18 0.30 0.30 99 1015.3
20260505083613 14 204 0.0 1.6 0.18 0.30 0.30 99 1015.4
20260505083109 14 195 0.0 3.2 0.13 0.28 0.28 99 1015.8
20260505082605 14 207 1.6 3.2 0.18 0.25 0.25 99 1015.6
20260505082103 14 188 0.0 4.8 0.36 0.25 0.25 98 1015.5
20260505081559 14 131 1.6 1.6 0.30 0.23 0.23 98 1015.4
20260505081056 14 196 1.6 1.6 0.30 0.20 0.20 98 1015.8
20260505080552 14 131 3.2 3.2 0.30 0.18 0.18 98 1015.8
20260505080049 14 183 1.6 1.6 0.30 0.15 0.15 98 1015.9
20260505075545 14 185 0.0 1.6 0.30 0.13 0.13 98 1016.0
20260505075042 14 190 0.0 1.6 0.13 0.10 0.10 98 1016.3
20260505074539 14 189 0.0 0.0 0.00 0.08 0.08 98 1016.4
20260505074036 14 215 1.6 1.6 0.18 0.08 0.08 97 1016.0
20260505073533 14 211 0.0 1.6 0.00 0.05 0.05 97 1015.8
20260505073032 14 179 0.0 3.2 0.13 0.05 0.05 97 1016.0
20260505072527 14 186 0.0 1.6 0.13 0.05 0.05 97 1016.2
20260505072023 14 190 0.0 0.0 0.00 0.03 0.03 96 1016.1
20260505071519 14 194 0.0 0.0 0.18 0.03 0.03 96 1016.1
20260505071018 14 203 1.6 1.6 0.18 0.03 0.03 96 1016.1
20260505070515 14 183 0.0 1.6 0.00 0.00 0.00 95 1016.1
20260505070010 14 191 0.0 1.6 0.00 0.13 0.13 95 1016.0
20260505065506 14 204 1.6 1.6 0.13 0.13 0.13 94 1016.0
20260505065003 15 163 1.6 3.2 0.13 0.13 0.13 94 1016.1
20260505064500 14 193 0.0 3.2 0.00 0.10 0.10 94 1016.2
20260505063958 14 230 1.6 1.6 0.00 0.10 0.10 94 1016.4
20260505063455 14 228 1.6 3.2 0.00 0.10 0.10 94 1016.4
20260505062951 14 225 3.2 3.2 0.18 0.10 0.10 95 1016.3
20260505062448 15 251 4.8 4.8 0.18 0.10 0.10 95 1016.4
20260505061945 14 209 0.0 3.2 0.00 0.08 0.08 95 1016.4
20260505061443 14 250 4.8 4.8 0.00 0.08 0.08 95 1016.4
20260505060940 14 204 0.0 3.2 0.00 0.08 0.08 96 1015.9
20260505060437 14 193 0.0 1.6 0.00 0.08 0.08 96 1015.9
20260505055933 15 167 1.6 1.6 0.00 0.08 0.08 96 1015.9
20260505055430 14 199 0.0 1.6 0.00 0.08 0.08 96 1016.1
20260505054926 14 225 1.6 1.6 0.00 0.08 0.08 96 1016.3
20260505054424 14 216 1.6 1.6 0.00 0.08 0.08 95 1016.0
20260505053922 15 194 3.2 4.8 0.00 0.08 0.08 95 1016.0
20260505053419 15 95 4.8 4.8 0.00 0.08 0.08 95 1015.9
20260505052916 15 99 3.2 3.2 0.13 0.08 0.08 95 1015.8
20260505052412 15 211 1.6 1.6 0.13 0.08 0.08 94 1015.6
20260505051910 15 146 1.6 1.6 0.00 0.05 0.05 95 1016.0
20260505051407 15 187 0.0 1.6 0.00 0.05 0.05 95 1016.0
20260505050905 15 201 0.0 1.6 0.00 0.05 0.05 94 1016.1
20260505050403 15 181 0.0 1.6 0.00 0.05 0.05 94 1015.9
20260505041330 16 146 4.8 8.0 0.00 0.00 0.00 76 1015.8
20260505040827 16 219 8.0 9.7 0.00 0.00 0.00 77 1015.2
20260505040325 16 244 6.4 9.7 0.00 0.00 0.00 77 1015.2
20260505035822 16 220 3.2 4.8 0.00 0.00 0.00 77 1015.3
20260505035317 16 199 1.6 3.2 0.00 0.00 0.00 77 1015.0
20260505034815 16 185 1.6 4.8 0.00 0.00 0.00 77 1015.0
20260505034311 16 207 4.8 4.8 0.00 0.00 0.00 77 1015.3
20260505033808 16 117 4.8 11.3 0.00 0.00 0.00 77 1014.9
20260505033305 16 197 8.0 9.7 0.00 0.00 0.00 77 1014.9
20260505032804 16 168 8.0 11.3 0.00 0.00 0.00 76 1015.0
20260505032259 16 185 8.0 17.7 0.00 0.00 0.00 74 1015.4
20260505031757 16 185 3.2 4.8 0.00 0.00 0.00 74 1015.6
20260505031253 16 213 4.8 4.8 0.00 0.00 0.00 73 1015.6
20260505030750 16 93 4.8 8.0 0.00 0.00 0.00 74 1015.4
20260505030246 16 72 8.0 9.7 0.00 0.00 0.00 74 1015.4
20260505025742 16 163 6.4 16.1 0.00 0.00 0.00 73 1015.3
20260505025240 17 187 8.0 24.1 0.00 0.00 0.00 71 1015.1
20260505024738 17 102 16.1 20.9 0.00 0.00 0.00 68 1015.1
20260505024235 17 141 16.1 27.4 0.00 0.00 0.00 66 1014.8
20260505023732 18 150 6.4 22.5 0.00 0.00 0.00 65 1014.5
20260505023230 18 141 14.5 17.7 0.00 0.00 0.00 62 1014.7
20260505022727 18 133 6.4 20.9 0.00 0.00 0.00 62 1014.7
20260505022224 17 182 6.4 11.3 0.00 0.00 0.00 68 1014.8
20260505021720 17 211 4.8 12.9 0.00 0.00 0.00 66 1015.2
20260505021218 17 193 4.8 11.3 0.00 0.00 0.00 65 1015.1
20260505020713 18 186 3.2 8.0 0.00 0.00 0.00 65 1015.3
20260505020208 18 195 4.8 11.3 0.00 0.00 0.00 60 1015.3
20260505015706 18 229 4.8 14.5 0.00 0.00 0.00 59 1015.8
20260505015203 19 144 4.8 16.1 0.00 0.00 0.00 55 1015.8
20260505014700 21 215 11.3 12.9 0.00 0.00 0.00 48 1015.4
20260505014157 21 219 9.7 17.7 0.00 0.00 0.00 45 1015.1
20260505013654 21 273 8.0 9.7 0.00 0.00 0.00 44 1014.8
20260505013151 21 206 1.6 3.2 0.00 0.00 0.00 41 1014.6
20260505012649 21 215 0.0 3.2 0.00 0.00 0.00 41 1014.6
20260505012147 21 163 3.2 4.8 0.00 0.00 0.00 41 1014.7
20260505011642 21 171 3.2 9.7 0.00 0.00 0.00 41 1014.6
20260505011139 21 103 4.8 8.0 0.00 0.00 0.00 41 1014.6
20260505010634 21 177 8.0 14.5 0.00 0.00 0.00 40 1014.4
20260505010131 21 138 8.0 11.3 0.00 0.00 0.00 40 1014.4
20260505005627 21 98 11.3 12.9 0.00 0.00 0.00 39 1014.5
20260505005124 21 73 4.8 9.7 0.00 0.00 0.00 38 1014.6
20260505004621 22 80 3.2 9.7 0.00 0.00 0.00 38 1014.6
20260505004118 22 205 3.2 4.8 0.00 0.00 0.00 38 1014.7
20260505003615 22 203 8.0 9.7 0.00 0.00 0.00 38 1014.5
20260505003113 22 183 6.4 8.0 0.00 0.00 0.00 39 1014.6
20260505002609 22 240 6.4 9.7 0.00 0.00 0.00 39 1014.6
20260505002107 22 199 4.8 8.0 0.00 0.00 0.00 38 1014.5
20260505001604 21 172 4.8 12.9 0.00 0.00 0.00 38 1014.2
20260505001101 22 228 6.4 17.7 0.00 0.00 0.00 38 1014.1
20260505000558 21 216 3.2 14.5 0.00 0.00 0.00 38 1014.1
20260505000056 21 201 8.0 17.7 0.00 0.00 0.00 39 1013.9
20260504235552 21 213 6.4 17.7 0.00 0.00 0.00 40 1014.2
20260504235049 21 188 12.9 16.1 0.00 0.00 0.00 38 1014.2
20260504234546 22 234 4.8 16.1 0.00 0.00 0.00 38 1014.5
20260504234043 22 254 14.5 22.5 0.00 0.00 0.00 38 1014.5
20260504233538 22 227 12.9 17.7 0.00 0.00 0.00 37 1014.8
20260504233035 22 253 14.5 20.9 0.00 0.00 0.00 36 1014.9
20260504232532 23 212 9.7 17.7 0.00 0.00 0.00 37 1014.8
20260504232030 23 279 11.3 24.1 0.00 0.00 0.00 32 1014.8
20260504231526 24 278 14.5 35.4 0.00 0.00 0.00 30 1014.8
20260504231023 25 278 19.3 32.2 0.00 0.00 0.00 27 1014.6
20260504230519 25 246 8.0 11.3 0.00 0.00 0.00 28 1014.5
20260504230018 25 270 19.3 25.7 0.00 0.00 0.00 28 1014.6
20260504225515 25 198 11.3 24.1 0.00 0.00 0.00 28 1014.5
20260504225012 25 279 8.0 16.1 0.00 0.00 0.00 29 1014.1
20260504224509 25 229 11.3 25.7 0.00 0.00 0.00 29 1014.2
20260504224006 25 275 11.3 22.5 0.00 0.00 0.00 28 1014.1
20260504223502 25 272 16.1 27.4 0.00 0.00 0.00 28 1014.5
20260504222957 25 287 14.5 17.7 0.00 0.00 0.00 27 1014.4
20260504222455 25 310 8.0 17.7 0.00 0.00 0.00 27 1014.5
20260504221953 25 273 6.4 22.5 0.00 0.00 0.00 27 1014.4
20260504221450 26 228 14.5 17.7 0.00 0.00 0.00 27 1014.7
20260504220947 26 246 12.9 16.1 0.00 0.00 0.00 27 1014.5
20260504220443 26 250 9.7 14.5 0.00 0.00 0.00 27 1014.2
20260504215940 26 248 4.8 11.3 0.00 0.00 0.00 27 1014.2
20260504215437 26 211 3.2 8.0 0.00 0.00 0.00 27 1014.2
20260504214933 26 278 8.0 25.7 0.00 0.00 0.00 26 1014.2
20260504214430 26 256 6.4 24.1 0.00 0.00 0.00 26 1014.4
20260504213926 27 297 14.5 17.7 0.00 0.00 0.00 26 1014.1
20260504213422 27 204 9.7 16.1 0.00 0.00 0.00 25 1014.4
20260504212920 26 295 11.3 14.5 0.00 0.00 0.00 25 1014.5
20260504212415 26 265 12.9 25.7 0.00 0.00 0.00 24 1014.6
20260504211914 26 228 4.8 8.0 0.00 0.00 0.00 24 1014.1
20260504211410 26 302 11.3 16.1 0.00 0.00 0.00 25 1014.1